Weather History for Spokane, WA

Change the Weather History Date:

Thursday, October 4, 2012

  Actual Average Record
Temperature  
Mean Temperature 48 °F 53 °F  
Max Temperature 58 °F 65 °F 87 °F (1943)
Min Temperature 37 °F 41 °F 29 °F (1985)
Degree Days  
Heating Degree Days 17 12  
Month to date heating degree days 46 47  
Since 1 July heating degree days 148 295  
Cooling Degree Days 0 0  
Month to date cooling degree days 0 0  
Year to date cooling degree days 535 449  
Moisture  
Dew Point 21 °F    
Average Humidity 41    
Maximum Humidity 64    
Minimum Humidity 17    
Precipitation  
Precipitation 0.00 in 0.03 in 0.59 in (1949)
Month to date precipitation 0.00 0.10  
Year to date precipitation 13.96 10.88  
Snow  
Snow 0.00 in 0.00 in T in (2007)
Month to date snowfall 0.0 0.0  
Since 1 July snowfall 0.0 0.0  
Since 1 September snowfall 0.0 0.0  
Snow Depth 0.00 in    
Sea Level Pressure  
Sea Level Pressure 30.32 in    
Wind  
Wind Speed 8 mph (NE)    
Max Wind Speed 20 mph    
Max Gust Speed 25 mph    
Visibility 10 miles    
Events      
T = Trace of Precipitation, MM = Missing Value Source: NWS Daily Summary

Daily Weather History Graph

Daily Weather History Graph

Search for Another Location

Airport:

Trip Planner

Search our weather history database for the weather conditions in past years. The results will help you decide how hot, cold, wet, or windy it might be!

Date:

Astronomy

Oct. 04, 2012 Rise Set
Actual Time 6:54 AM PDT 6:22 PM PDT
Civil Twilight 6:23 AM PDT 6:52 PM PDT
Nautical Twilight 5:47 AM PDT 7:28 PM PDT
Astronomical Twilight 5:11 AM PDT 8:04 PM PDT
Moon 8:41 PM PDT (10/4) 11:34 AM PDT (10/4)
Length of Visible Light 12h 29m
Length of Day
11h 28m
Waning Gibbous, 81% of the Moon is Illuminated
Oct 4
Waning Gibbous
Oct 8
Last Quarter
Oct 15
New
Oct 21
First Quarter
Oct 29
Full

Hourly Weather History & Observations

Time (PDT) Temp. Windchill Dew Point Humidity Pressure Visibility Wind Dir Wind Speed Gust Speed Precip Events Conditions
12:53 AM 41.0 °F 37.1 °F 27.0 °F 57% 30.34 in 10.0 mi NNE 5.8 mph - N/A   Partly Cloudy
1:53 AM 41.0 °F 38.0 °F 27.0 °F 57% 30.33 in 10.0 mi ENE 4.6 mph - N/A   Clear
2:53 AM 37.9 °F 34.4 °F 27.0 °F 65% 30.32 in 10.0 mi NE 4.6 mph - N/A   Clear
3:53 AM 37.9 °F 33.5 °F 27.0 °F 65% 30.32 in 10.0 mi NE 5.8 mph - N/A   Partly Cloudy
4:53 AM 39.0 °F 33.4 °F 26.1 °F 60% 30.31 in 10.0 mi NE 8.1 mph - N/A   Partly Cloudy
5:53 AM 37.9 °F 32.1 °F 26.1 °F 62% 30.32 in 10.0 mi NNE 8.1 mph - N/A   Partly Cloudy
6:53 AM 37.0 °F 31.6 °F 26.1 °F 65% 30.33 in 10.0 mi NNE 6.9 mph - N/A   Scattered Clouds
7:53 AM 39.0 °F 34.8 °F 26.1 °F 60% 30.33 in 10.0 mi NE 5.8 mph - N/A   Partly Cloudy
8:53 AM 44.1 °F 37.7 °F 26.1 °F 49% 30.34 in 10.0 mi NNE 12.7 mph - N/A   Partly Cloudy
9:53 AM 48.0 °F - 26.1 °F 42% 30.33 in 10.0 mi NNE 12.7 mph - N/A   Clear
10:53 AM 50.0 °F - 24.1 °F 36% 30.33 in 10.0 mi ENE 10.4 mph - N/A   Partly Cloudy
11:53 AM 53.1 °F - 19.9 °F 27% 30.32 in 10.0 mi NNE 10.4 mph 16.1 mph N/A   Partly Cloudy
12:53 PM 55.9 °F - 18.0 °F 23% 30.31 in 10.0 mi NNE 15.0 mph 20.7 mph N/A   Partly Cloudy
1:53 PM 55.9 °F - 14.0 °F 19% 30.30 in 10.0 mi North 15.0 mph 25.3 mph N/A   Partly Cloudy
2:53 PM 57.0 °F - 14.0 °F 18% 30.30 in 10.0 mi NE 17.3 mph 24.2 mph N/A   Partly Cloudy
3:53 PM 57.0 °F - 14.0 °F 18% 30.29 in 10.0 mi NNE 13.8 mph 23.0 mph N/A   Partly Cloudy
4:53 PM 55.9 °F - 14.0 °F 19% 30.29 in 10.0 mi NE 11.5 mph - N/A   Partly Cloudy
5:53 PM 54.0 °F - 12.0 °F 19% 30.30 in 10.0 mi ENE 10.4 mph - N/A   Scattered Clouds
6:53 PM 51.1 °F - 14.0 °F 23% 30.31 in 10.0 mi East 4.6 mph - N/A   Partly Cloudy
7:53 PM 48.9 °F - 15.1 °F 26% 30.31 in 10.0 mi Calm Calm - N/A   Partly Cloudy
8:53 PM 46.9 °F - 16.0 °F 29% 30.32 in 10.0 mi ENE 3.5 mph - N/A   Partly Cloudy
9:53 PM 46.0 °F 43.9 °F 17.1 °F 31% 30.32 in 10.0 mi ENE 4.6 mph - N/A   Clear
10:53 PM 44.1 °F 41.5 °F 19.0 °F 37% 30.32 in 10.0 mi ENE 4.6 mph - N/A   Clear
11:53 PM 42.1 °F - 19.0 °F 40% 30.33 in 10.0 mi Calm Calm - N/A   Clear